Wind_Speed
43 40 38 36 33 31 30 27 25 22 19 18 18 17 17 17 16 14 14 14 14 12 10 8 8 7 7 8 8 9 10 9 9 9 9 9 9 9 9 10 12 12 13 14 15 16 17 18 19 19 21 22 21 21 23 23 23 22 22 22 23 25 25 25 27 30 29 26 27 29 30 31 31 32 35 38 38 39 41 41 40 39 38 37 36
46 43 40 38 35 33 31 29 26 22 20 18 17 17 17 17 16 15 14 14 14 12 10 8 8 8 7 7 8 8 8 8 8 9 9 10 10 10 11 12 13 13 14 15 16 17 18 18 18 18 20 21 21 22 23 23 22 22 22 22 23 25 27 27 27 30 33 31 31 31 31 31 32 33 34 38 40 42 44 44 44 43 41 40 38
47 44 42 40 37 35 32 30 27 23 21 19 17 17 17 17 17 16 15 14 14 12 10 9 9 8 8 8 7 7 7 7 8 8 9 10 11 12 12 12 13 14 15 15 15 16 17 17 17 18 19 21 22 22 22 22 22 22 23 23 24 26 27 28 29 31 34 35 34 33 32 32 34 33 34 36 40 43 45 47 47 46 45 43 41
49 47 45 42 39 37 34 33 29 24 22 19 16 17 18 17 18 17 15 15 14 12 11 10 10 10 9 8 7 6 7 8 9 10 11 12 12 12 12 12 12 13 14 14 14 15 16 17 17 18 20 22 23 23 23 23 22 23 24 24 26 27 27 28 30 32 34 36 36 34 33 33 33 32 33 37 41 44 46 48 49 48 48 46 42
51 49 47 44 43 41 38 36 31 26 23 18 14 17 19 18 19 18 17 16 14 12 12 11 11 11 10 8 8 8 8 10 10 11 11 12 13 12 11 10 10 11 11 12 13 14 15 16 16 16 18 20 22 23 23 22 21 22 23 23 25 26 27 28 29 31 33 36 36 35 33 33 31 31 33 37 43 46 48 50 50 50 50 48 45
53 51 49 47 47 44 41 38 33 28 24 17 13 17 20 19 19 20 19 17 15 13 13 12 12 11 10 9 9 9 10 11 11 11 12 13 12 11 9 9 9 10 11 12 13 15 16 17 16 16 17 19 20 21 21 21 21 22 22 22 22 23 25 26 27 28 31 34 35 35 34 32 31 31 33 37 43 47 50 52 53 52 51 50 48
54 53 51 51 50 47 43 39 36 31 23 15 16 20 21 20 20 21 20 18 16 15 14 13 12 12 11 10 10 11 11 12 11 11 12 12 11 10 9 10 11 12 13 15 16 18 18 19 18 18 18 19 19 20 21 22 23 23 23 21 21 21 23 23 24 26 29 31 32 33 33 32 31 32 34 38 42 45 47 51 54 54 52 51 50
55 55 54 53 51 49 45 41 38 31 21 16 20 23 22 21 21 21 21 19 17 16 14 13 13 14 12 11 10 11 12 12 11 11 12 12 11 11 11 12 13 15 16 18 19 19 20 20 20 21 20 21 21 21 22 23 24 25 24 22 21 21 22 23 25 25 26 27 29 30 31 31 31 32 36 39 42 44 45 47 52 55 53 51 50
56 56 56 55 53 51 47 42 38 30 20 19 23 23 22 22 22 22 21 19 17 15 14 14 15 16 14 12 11 11 11 11 10 11 12 12 11 12 13 14 16 17 19 20 21 20 21 21 22 22 23 23 24 23 22 23 24 25 24 23 22 22 22 24 25 25 26 27 29 29 29 30 31 33 36 39 41 43 45 46 50 53 51 50 50
56 57 57 56 55 52 47 43 39 29 22 23 25 23 22 22 22 22 21 19 17 15 15 16 17 17 15 13 12 11 11 10 10 11 12 12 12 13 15 16 18 20 21 21 21 20 20 21 22 23 23 24 24 24 23 22 22 24 24 24 23 23 23 24 24 25 26 28 29 28 28 30 32 33 37 40 40 42 44 46 49 52 51 50 50
56 57 57 55 54 53 49 46 41 32 26 26 26 22 21 21 21 21 20 18 17 16 16 17 18 17 16 14 14 12 11 11 11 12 13 14 14 15 16 19 20 21 22 22 21 20 20 21 21 21 22 22 22 22 22 21 21 22 23 23 23 23 23 24 25 25 26 28 28 27 29 31 32 32 36 40 41 41 44 46 47 50 50 49 49
56 56 54 54 55 55 50 46 40 30 23 24 24 21 20 20 20 21 20 18 18 17 18 18 18 17 15 15 14 12 12 12 13 14 16 16 17 17 19 21 22 23 24 23 21 21 21 22 21 20 20 20 20 21 21 21 21 21 21 21 21 22 23 24 25 26 27 28 28 29 30 32 33 33 35 40 41 42 45 48 47 47 48 48 48
54 51 50 49 48 47 44 40 36 27 20 22 24 22 20 21 21 21 20 18 19 19 19 19 18 16 15 15 14 13 13 14 15 17 18 19 20 20 21 23 25 25 25 24 23 23 23 23 22 21 20 20 20 21 22 23 23 23 22 22 22 22 23 25 26 27 28 29 30 31 32 33 33 34 36 38 42 44 46 49 48 47 48 49 50
48 45 44 43 42 42 42 40 37 31 25 27 29 26 23 22 21 21 20 20 21 21 20 20 18 16 15 15 15 15 15 15 17 19 21 22 22 23 23 25 27 27 26 26 25 24 24 24 23 22 21 21 22 22 23 25 26 26 25 25 25 24 25 26 27 28 28 28 31 32 32 33 34 36 38 39 41 44 47 50 50 50 52 52 52
42 41 42 43 44 46 45 43 41 35 28 29 32 31 27 24 22 21 22 22 23 22 21 20 18 17 17 16 15 16 17 18 21 22 22 23 24 25 26 26 27 27 26 27 26 24 24 24 23 23 22 23 23 23 24 25 26 27 27 27 27 27 28 28 28 27 27 27 29 31 33 34 36 38 40 40 42 45 48 51 52 53 55 54 52
41 42 43 45 47 46 44 44 44 37 29 30 34 34 30 27 23 23 23 23 23 22 20 19 19 19 19 18 18 19 20 20 22 22 22 23 25 26 26 26 26 25 25 26 26 25 24 24 24 23 23 24 24 24 25 26 26 26 27 28 29 30 31 30 28 27 26 26 27 30 33 34 36 38 40 42 45 47 49 51 52 53 55 53 51
41 42 45 47 46 43 43 44 41 33 29 31 33 33 32 30 28 26 26 25 24 23 21 20 20 20 20 22 22 21 21 20 21 20 20 20 22 23 23 23 24 23 23 25 26 25 24 25 25 24 23 24 24 26 26 26 26 26 27 29 31 32 32 31 28 27 26 26 27 29 31 33 34 36 39 43 45 45 46 50 52 52 52 52 50
41 44 46 45 42 42 44 44 39 30 27 30 32 32 31 32 33 31 28 26 25 23 22 22 22 24 26 27 24 21 21 22 23 22 19 17 19 21 22 22 22 22 22 24 26 26 26 26 26 25 24 24 25 26 26 26 26 27 28 29 31 32 32 31 29 27 26 26 27 29 30 31 32 34 38 41 40 39 42 46 50 50 51 51 51
44 44 43 41 42 42 42 41 34 26 25 30 31 31 32 35 38 37 32 29 27 26 26 27 27 28 29 27 23 21 21 22 23 22 19 17 19 20 22 22 22 22 23 24 26 27 27 26 25 25 26 26 25 25 24 24 25 26 27 28 30 30 30 30 29 29 29 28 28 28 28 29 31 34 37 38 36 36 39 43 47 49 51 51 49
43 42 41 42 43 42 41 36 25 18 23 31 30 30 35 38 38 36 34 33 31 30 30 29 27 27 27 26 25 23 20 19 20 20 18 18 19 21 22 22 23 23 24 25 26 26 25 25 25 25 26 26 24 23 21 22 23 25 26 27 28 29 29 30 30 31 31 30 28 28 28 30 31 34 36 36 35 35 37 40 44 47 50 51 46
39 40 41 41 39 39 38 29 17 16 23 29 28 31 35 33 30 32 35 36 35 33 31 28 25 26 26 24 22 20 17 17 18 18 18 18 20 20 21 22 22 24 25 26 26 24 24 23 24 25 25 25 23 21 20 21 23 24 25 26 27 28 29 31 31 30 29 27 27 27 28 30 32 35 35 33 33 35 37 41 44 45 48 50 44
31 33 36 36 34 35 31 21 17 21 23 25 29 32 33 29 28 31 33 32 30 29 29 27 26 26 24 21 17 15 15 16 17 17 17 18 19 19 20 21 22 24 25 24 23 23 23 23 24 25 24 23 22 20 20 21 23 24 25 25 27 28 29 29 28 26 25 24 25 26 28 31 33 35 34 31 33 36 38 41 45 45 47 46 37
28 29 27 26 28 32 28 19 18 24 27 28 29 29 28 27 27 27 27 25 24 24 26 24 22 21 20 16 14 13 13 15 15 15 17 18 18 18 18 19 21 23 23 23 22 22 23 23 24 23 23 22 21 20 20 21 23 24 25 26 27 27 26 24 23 23 22 22 24 26 29 31 33 34 33 31 33 37 39 42 46 45 46 42 27
25 22 16 18 25 30 27 19 20 25 29 29 25 23 24 25 26 28 28 26 25 24 22 21 19 19 16 13 13 13 13 14 15 16 17 17 16 16 17 18 20 21 22 22 21 21 22 23 23 22 21 21 20 19 20 21 23 24 25 26 25 23 22 21 20 20 21 22 24 26 29 30 31 33 33 31 31 36 39 42 45 44 44 41 23
22 17 14 17 24 28 27 25 26 25 23 20 17 18 21 21 23 27 27 24 22 21 18 17 17 16 13 12 12 13 13 15 16 17 17 16 16 15 16 17 20 20 20 20 20 20 22 22 22 21 21 21 20 19 20 21 23 24 24 22 21 20 19 19 19 20 22 23 25 26 28 29 29 31 33 31 30 34 37 41 45 43 42 40 27
17 14 14 16 20 24 25 24 20 13 8 4 5 12 17 17 17 20 21 20 19 18 15 15 13 12 12 12 13 13 15 16 17 17 17 16 16 15 15 17 19 19 19 18 19 21 21 22 22 22 21 21 20 19 20 22 23 22 20 18 18 17 18 19 20 22 23 24 25 26 26 28 28 29 31 30 29 31 35 39 43 45 42 40 34
12 9 10 12 11 12 14 12 10 8 5 3 4 10 15 15 14 16 17 17 16 15 13 11 11 11 12 13 14 14 15 16 16 17 16 16 15 14 15 16 17 17 18 18 20 21 21 21 22 21 20 19 19 19 21 22 21 19 16 16 17 18 20 21 21 22 23 23 24 25 25 27 28 29 32 31 29 30 33 35 39 43 43 41 39
14 17 19 17 15 14 13 11 9 6 3 5 8 10 11 14 16 17 17 16 14 13 11 10 10 11 11 13 13 13 15 16 16 16 15 15 14 14 15 17 17 18 18 19 20 21 21 21 21 20 18 18 18 19 20 19 18 16 16 18 19 20 21 22 21 20 21 22 23 24 25 27 29 30 32 33 30 29 31 32 35 40 42 42 41
22 24 22 19 18 16 13 11 9 6 3 5 9 10 13 17 19 18 16 14 13 11 9 9 10 11 11 12 12 13 15 16 15 15 16 15 15 15 16 18 18 18 18 19 19 19 20 20 20 18 18 18 17 18 18 18 17 17 19 21 22 21 22 21 20 20 21 21 22 24 26 28 30 32 33 34 32 29 28 30 33 37 39 41 41
20 20 18 16 15 14 10 10 13 14 10 10 13 15 17 19 20 17 15 14 12 11 10 10 11 12 12 12 13 14 16 16 16 16 16 16 16 16 17 18 19 18 18 18 17 18 19 18 18 17 17 17 17 17 17 17 18 19 20 21 21 20 20 19 19 19 20 21 23 25 26 28 31 32 33 33 32 30 27 27 29 33 36 40 41
15 13 11 10 12 14 13 14 17 20 19 17 18 18 19 20 20 18 16 15 13 12 12 12 12 12 12 12 14 15 17 18 17 17 16 16 16 17 18 19 18 17 17 17 17 17 17 16 16 17 17 17 17 17 17 18 18 19 19 19 19 19 18 18 19 20 21 22 24 25 26 28 30 31 31 31 31 29 26 24 25 29 32 36 40
12 9 10 13 13 13 13 13 16 19 20 19 19 18 19 21 20 18 16 15 15 14 13 13 12 12 12 14 15 16 18 18 18 17 16 16 16 17 18 18 18 17 17 17 16 16 15 14 15 16 17 17 17 16 16 17 17 18 19 19 18 18 18 19 20 21 23 24 25 26 27 28 29 28 27 27 28 27 26 24 24 25 28 32 36
14 13 12 11 11 12 13 14 16 17 18 18 19 20 20 20 19 18 17 16 15 14 13 12 11 12 14 16 17 17 17 18 17 17 16 16 16 16 17 17 17 16 16 16 15 14 14 14 15 16 16 16 15 14 15 16 17 18 18 18 17 17 19 20 21 22 23 24 25 26 26 26 26 26 24 24 24 25 24 24 23 23 25 28 32
13 11 9 10 10 11 12 12 13 15 16 17 19 21 21 20 18 17 15 15 14 15 14 12 12 13 15 16 17 16 16 16 17 16 16 15 15 15 15 16 16 16 15 14 14 14 13 14 14 15 15 15 14 13 14 15 17 17 17 17 17 18 19 21 22 23 24 24 24 24 24 23 23 22 21 21 22 22 22 23 22 22 23 25 29
10 11 11 11 11 11 12 14 15 16 16 18 20 22 21 18 15 14 14 16 16 16 14 12 13 14 16 16 15 14 14 15 15 15 14 13 13 14 16 17 17 16 14 13 14 14 14 14 14 14 14 14 13 13 15 16 17 18 18 18 18 20 21 23 24 23 22 21 21 21 21 21 20 19 19 19 20 21 21 21 21 21 21 21 24
11 11 12 12 12 12 13 15 16 17 18 20 21 20 17 15 14 15 16 17 17 15 14 14 14 15 16 15 13 12 12 13 13 12 12 12 13 14 15 16 16 14 13 13 14 15 15 15 15 14 14 14 14 15 16 17 17 17 18 19 21 22 23 23 22 20 19 18 18 19 19 19 18 17 17 18 18 19 19 19 19 19 19 18 18
11 12 13 13 13 12 12 12 14 16 17 19 18 17 16 16 16 16 16 17 17 16 15 15 15 15 14 12 10 10 9 8 8 10 11 12 12 13 13 14 13 12 12 12 14 15 15 15 14 14 14 15 17 17 17 17 17 17 19 21 21 21 20 19 17 16 16 16 17 18 17 17 16 16 17 18 19 18 18 18 17 16 17 17 16
11 12 13 12 12 11 10 10 11 13 15 17 17 17 17 16 16 16 17 17 17 16 15 15 15 14 12 10 8 8 7 7 7 8 10 10 11 12 12 12 12 11 11 12 14 15 14 14 14 15 16 17 17 17 16 16 17 19 20 20 19 17 16 14 14 14 14 15 17 17 16 15 16 17 18 19 19 19 18 18 17 15 14 16 17
10 11 11 12 12 11 10 10 11 12 15 17 17 18 18 17 17 17 17 17 17 16 15 15 14 13 10 9 8 8 8 8 8 8 9 11 12 13 13 13 12 11 11 12 13 14 13 13 14 14 15 16 16 16 17 17 18 18 17 16 14 13 12 12 12 12 13 15 16 16 15 15 15 17 18 18 19 19 19 18 18 16 14 14 16
10 10 11 11 12 11 10 11 11 13 15 16 17 18 19 17 16 16 17 17 16 15 14 14 14 11 10 9 9 9 9 9 8 8 9 11 13 13 13 13 12 11 11 12 12 12 12 13 12 13 13 14 15 17 18 17 16 14 12 11 10 10 10 11 11 12 13 15 15 15 16 16 16 16 18 19 18 19 19 18 17 16 15 13 14
11 11 12 12 13 13 12 12 13 14 15 16 17 16 15 14 14 15 16 16 14 13 12 13 12 11 10 11 11 11 11 10 10 10 10 12 14 13 12 12 12 11 12 12 12 12 12 11 11 11 13 14 15 17 17 14 11 10 9 8 8 9 10 11 12 13 13 14 15 15 15 16 16 17 18 19 18 18 18 18 17 16 15 13 12
12 13 13 13 13 12 11 11 12 14 16 17 17 15 14 15 15 15 15 14 13 12 12 12 12 12 13 13 13 12 12 11 11 12 13 14 14 12 10 11 12 12 12 12 11 10 9 9 9 11 12 13 14 14 12 10 8 7 6 7 7 8 9 10 12 13 13 13 14 15 15 15 16 17 17 19 19 18 18 19 18 16 15 15 14
12 12 11 10 10 9 9 10 12 14 17 19 17 15 13 13 14 14 14 14 13 11 11 12 12 13 13 13 13 13 12 12 12 13 14 15 14 11 10 10 11 11 10 9 7 6 6 7 9 11 11 11 10 9 8 7 6 5 5 6 6 7 9 10 11 12 13 13 13 14 14 15 16 16 17 18 19 18 18 19 19 18 16 15 15
9 8 8 8 8 8 9 11 13 15 17 19 15 12 12 13 13 14 15 14 12 11 11 12 12 13 13 13 12 11 11 12 12 12 14 15 14 11 10 11 10 10 9 7 5 5 6 8 11 12 11 10 8 6 6 5 5 5 5 5 6 6 8 9 10 11 12 12 12 13 14 14 15 16 17 18 18 18 18 18 19 18 17 16 15
6 7 7 8 9 10 12 13 12 12 13 12 9 7 9 11 11 12 13 12 11 12 12 12 13 13 13 12 11 11 11 11 11 13 15 15 13 11 11 11 11 10 9 7 5 6 8 11 12 12 10 8 6 5 5 5 5 5 5 6 6 6 7 8 9 9 10 11 12 12 14 15 15 16 16 17 17 17 17 17 17 18 17 16 16
7 8 9 10 10 10 9 8 6 5 5 4 3 4 6 8 9 10 11 11 12 13 13 13 13 13 12 11 11 11 10 10 11 13 14 13 12 11 10 11 11 11 9 7 6 7 9 12 13 12 9 7 6 5 5 5 5 6 6 6 7 7 7 7 8 8 9 10 11 12 13 14 15 16 16 16 16 16 15 15 16 16 16 15 15
8 8 8 8 8 6 4 3 2 1 1 2 2 3 4 5 6 8 9 10 12 12 12 11 12 12 11 10 10 9 9 9 11 11 10 10 10 11 11 10 10 9 8 7 6 7 9 12 12 11 9 7 6 6 5 5 6 6 6 6 7 7 7 7 7 7 7 8 9 11 12 13 14 15 15 15 15 15 14 14 15 15 15 14 13
5 5 6 6 6 6 5 4 3 2 1 2 2 2 3 4 5 7 8 9 10 9 9 9 10 10 10 9 8 8 9 10 10 9 8 8 8 8 9 10 9 8 7 6 6 7 10 12 11 10 8 8 7 6 6 6 7 7 7 8 8 8 8 7 7 6 7 7 8 9 10 11 12 13 14 14 15 14 14 13 14 14 14 13 13
3 4 5 6 7 8 8 7 7 5 4 3 4 4 4 5 5 7 8 9 9 8 8 8 9 10 9 9 9 9 9 10 9 9 8 7 6 6 8 9 8 7 5 5 7 9 11 11 10 8 7 7 7 7 7 7 8 9 9 9 9 9 9 8 7 6 6 6 7 8 9 10 11 11 12 13 14 13 12 12 13 13 13 13 13
4 5 6 7 8 9 9 9 8 8 7 7 7 7 7 8 8 9 9 10 10 9 9 9 9 10 10 10 9 9 9 9 9 9 9 9 8 8 8 8 8 7 6 7 8 10 11 11 9 7 6 6 6 6 7 7 8 9 10 10 11 10 10 9 8 7 6 5 6 6 7 7 9 10 11 11 12 12 12 12 12 12 12 12 13
4 5 7 9 11 11 11 10 9 8 8 9 10 10 11 12 12 12 11 12 12 11 10 10 11 11 11 10 10 10 10 10 9 10 10 12 12 11 9 9 9 8 8 8 9 11 12 10 8 6 5 5 5 5 6 7 8 9 10 10 10 10 10 9 8 7 6 5 5 5 5 6 6 8 9 10 11 11 11 11 11 11 11 10 11
Wind_Direction
217 215 214 214 217 220 223 222 219 215 211 215 221 221 220 219 217 213 208 207 207 204 201 203 210 221 232 244 257 263 263 261 262 267 270 271 271 273 274 275 278 283 288 293 297 300 300 294 291 290 287 287 292 294 295 294 289 287 290 291 291 294 298 299 296 300 307 312 317 323 325 323 321 323 326 325 325 327 327 326 327 325 322 320 316
219 218 217 216 216 217 219 219 216 212 210 213 218 220 222 223 220 214 207 203 203 202 199 200 207 217 226 238 250 255 258 258 258 262 266 269 271 272 273 276 281 288 293 296 298 300 301 296 291 290 289 291 295 297 298 298 293 292 293 292 290 290 292 293 294 295 300 305 310 315 321 322 319 322 326 325 325 326 325 325 325 324 322 319 315
221 221 221 219 218 217 219 218 213 209 208 210 215 220 223 224 222 217 207 201 202 204 205 208 216 225 233 241 246 249 252 251 253 262 269 272 275 276 278 283 289 295 296 295 298 302 302 299 295 291 289 289 291 294 295 295 294 294 295 294 292 290 290 290 290 291 294 299 304 309 316 320 318 320 324 324 325 326 325 325 324 323 321 319 315
222 223 223 223 221 219 218 216 212 209 207 207 216 221 222 224 224 218 208 203 205 208 211 219 227 233 240 244 248 253 254 254 259 267 273 279 285 288 288 289 292 295 295 295 299 303 303 302 300 296 291 290 290 291 292 292 294 295 297 298 296 294 292 289 288 288 290 293 299 304 309 316 318 320 323 324 325 325 325 325 325 324 321 318 315
223 224 224 224 223 221 218 214 210 207 203 203 217 222 219 221 222 218 211 207 209 211 217 226 232 237 242 244 250 256 256 259 265 272 282 291 293 291 286 286 291 294 295 298 303 305 303 302 304 301 296 294 294 293 291 290 292 295 297 300 300 299 297 293 290 289 288 290 296 300 304 312 315 317 323 327 327 326 327 327 326 324 321 318 315
224 225 225 225 224 222 217 213 210 206 201 206 226 225 218 218 219 216 213 211 211 214 219 227 234 241 246 248 252 256 258 262 267 277 289 293 288 281 276 279 289 296 301 306 306 303 300 299 300 299 296 296 296 294 292 290 291 293 295 297 300 302 300 299 296 290 287 289 293 297 302 309 311 314 324 330 328 327 328 327 325 322 319 316 313
224 226 226 226 225 222 217 214 211 207 203 212 224 217 213 216 218 216 215 214 213 215 220 227 238 245 246 246 251 255 256 258 265 278 288 287 277 270 272 281 289 294 299 302 301 298 296 295 294 293 292 294 295 293 291 289 290 292 293 294 297 298 298 298 297 293 289 289 291 295 301 306 307 314 326 331 328 327 327 324 320 319 317 314 311
225 227 227 226 224 223 219 215 211 206 205 213 213 208 210 215 217 217 215 214 215 216 219 228 241 245 241 241 250 255 254 254 261 273 282 281 271 268 275 283 288 292 294 297 298 296 293 292 291 290 288 288 290 291 289 288 288 288 289 290 291 292 292 291 293 295 293 291 292 295 300 303 305 315 326 329 325 324 326 321 315 315 315 313 309
226 227 227 225 224 224 220 215 209 204 202 205 203 204 208 212 215 216 215 215 217 217 219 231 242 242 237 241 251 254 253 254 259 268 276 279 271 268 277 284 289 290 291 294 297 296 292 290 288 287 285 285 286 288 289 287 285 284 284 285 285 286 287 288 289 292 294 293 293 296 299 299 303 314 324 326 323 322 324 320 313 312 312 310 307
228 228 227 226 224 223 219 212 206 202 200 200 200 203 206 208 213 216 215 217 218 217 222 234 241 240 238 243 248 249 252 255 259 264 271 277 275 273 277 283 287 288 288 291 294 294 290 287 285 284 283 283 284 285 287 288 285 283 283 284 284 285 286 288 289 291 293 293 293 296 295 294 302 314 320 322 322 321 321 318 313 312 311 307 303
230 229 227 224 223 222 218 211 204 201 202 200 197 200 203 206 212 214 215 218 220 220 227 235 239 239 237 240 242 246 253 258 262 266 268 271 275 278 281 283 286 287 288 291 291 290 288 287 288 287 283 283 282 281 283 285 285 285 285 283 283 284 286 289 291 293 293 291 291 291 290 293 302 311 316 319 320 320 319 316 313 311 309 305 301
232 229 224 223 223 221 215 207 200 199 202 202 200 201 202 205 212 215 217 220 221 223 229 234 237 237 236 238 241 246 254 260 266 270 270 272 275 280 284 287 288 288 289 289 287 285 285 287 291 290 286 283 280 279 279 280 281 283 284 283 282 284 287 290 292 293 292 290 288 286 288 294 300 307 312 316 319 320 320 317 313 311 307 303 298
231 226 222 221 220 214 206 201 198 196 202 210 209 205 205 208 213 217 219 223 226 228 231 234 236 236 236 239 242 247 253 257 261 265 269 274 278 281 285 288 288 287 287 286 283 281 283 287 291 291 287 283 280 279 279 278 280 282 281 281 282 286 289 289 290 291 291 288 284 283 288 294 298 303 308 312 317 320 320 318 315 312 307 303 298
228 223 220 218 214 208 205 205 202 199 206 215 212 209 210 212 214 220 224 227 230 231 233 235 234 233 236 240 246 253 258 263 267 267 267 270 275 279 282 284 286 287 287 286 282 280 284 289 292 292 289 286 284 283 281 281 282 283 282 280 281 286 290 289 290 290 290 288 283 283 290 294 297 300 302 306 314 321 322 320 316 313 310 307 303
226 222 220 218 215 210 209 209 204 201 207 213 212 212 215 214 215 222 227 229 233 234 235 235 234 234 239 244 252 261 269 275 279 274 268 266 269 272 277 282 286 288 289 287 284 283 287 290 293 294 291 288 288 287 286 285 283 282 282 280 281 285 289 291 294 294 292 289 285 285 289 294 295 296 297 300 306 315 322 321 318 316 315 310 305
229 224 222 221 217 211 208 205 202 203 208 211 213 215 217 217 218 223 228 232 235 237 237 237 240 243 248 252 259 266 272 278 281 275 270 269 266 267 275 283 287 288 288 287 285 285 288 291 293 295 293 291 291 290 289 287 283 279 278 277 280 284 288 293 297 297 293 290 287 286 287 291 293 293 295 296 300 312 321 321 320 321 317 309 304
233 228 227 226 218 206 200 199 200 204 206 204 208 214 217 220 221 224 231 235 236 239 240 241 244 249 253 256 260 266 271 277 280 275 270 271 269 272 281 286 286 287 287 287 286 285 287 290 293 294 294 295 294 292 290 286 281 278 276 278 282 285 289 295 296 294 291 289 287 286 287 292 295 296 298 299 304 316 322 320 323 325 316 307 304
239 236 232 225 210 196 196 200 200 200 197 197 204 211 215 221 224 226 232 237 240 242 244 245 249 252 253 255 260 267 273 278 280 275 270 273 276 280 284 285 286 289 289 287 285 284 286 289 291 292 295 298 299 296 292 286 282 280 279 281 285 288 293 297 296 293 293 291 289 289 291 296 300 303 305 307 312 321 325 324 327 325 315 308 306
248 240 228 213 202 199 201 201 196 190 191 198 205 211 216 225 231 232 235 239 242 244 245 247 253 254 252 254 261 270 276 279 280 276 273 275 278 279 281 284 288 290 289 286 283 283 286 289 289 292 296 300 302 300 295 291 287 284 283 285 289 293 297 299 299 300 301 299 297 297 300 306 309 310 313 314 317 324 328 331 332 327 318 313 309
248 236 220 209 207 204 197 192 188 190 202 207 212 221 228 235 241 241 241 243 244 245 244 245 249 252 254 259 266 270 273 273 272 272 271 272 274 277 281 285 287 286 283 282 281 284 286 287 289 294 298 301 302 300 297 293 290 288 288 291 296 299 301 302 303 305 305 304 304 306 310 314 316 317 319 322 326 330 333 336 337 331 323 318 313
244 231 214 205 204 197 187 183 181 185 203 215 226 236 240 244 249 249 248 248 246 243 240 242 248 257 266 275 277 271 265 261 262 264 267 272 277 281 285 286 284 281 279 280 282 284 285 286 291 296 299 301 302 300 297 294 293 293 296 299 301 303 305 306 307 308 308 308 311 313 315 317 318 321 324 329 334 337 338 341 341 336 330 325 317
229 215 202 199 201 194 185 180 177 181 200 223 233 241 246 248 249 249 249 249 246 243 244 249 256 265 275 283 279 266 257 258 262 268 275 280 285 287 287 285 282 280 280 280 282 284 286 289 293 296 298 300 300 299 298 297 297 299 301 303 304 306 307 309 310 312 313 315 315 315 317 319 322 325 329 333 339 342 344 345 345 340 337 333 321
211 202 201 205 205 198 190 190 196 201 213 226 235 246 256 256 251 249 248 248 252 256 257 257 263 275 282 278 267 261 263 268 275 285 289 292 293 291 288 284 281 280 280 280 282 285 288 292 295 296 299 301 301 301 301 300 301 302 304 305 307 308 311 314 316 317 316 316 315 316 320 325 327 330 331 333 342 349 350 350 347 344 344 342 326
205 206 221 225 215 207 204 214 231 230 227 233 246 259 261 258 252 246 246 251 255 255 253 256 270 283 283 269 260 266 276 285 293 299 299 298 297 293 287 283 280 279 280 281 283 285 288 292 296 298 299 300 301 303 302 302 302 303 305 307 309 311 316 319 318 316 314 314 316 319 326 330 332 333 332 333 343 353 355 352 350 349 350 351 343
204 218 246 236 217 212 216 231 245 243 233 237 253 257 252 252 248 243 248 254 250 244 249 263 276 280 272 262 266 278 290 299 303 304 304 302 299 293 287 283 280 279 280 281 282 285 289 294 297 298 300 301 303 305 304 303 304 305 308 311 313 315 319 318 315 315 315 317 321 325 330 334 335 335 335 335 341 351 354 352 353 355 357 360 3
218 236 248 231 217 218 226 232 234 225 204 202 239 245 246 250 248 244 245 244 240 245 260 270 271 266 260 264 275 285 295 303 306 307 307 302 297 291 285 281 279 279 280 281 283 289 293 296 298 299 300 302 304 304 304 304 306 309 312 314 315 317 319 318 317 318 319 321 325 328 332 335 337 338 340 339 339 344 348 350 354 360 3 4 7
211 200 188 183 183 194 203 199 178 154 135 132 201 224 232 241 247 242 233 231 239 257 269 266 259 258 261 269 278 287 299 307 310 308 304 297 291 285 281 279 279 279 281 283 288 293 295 296 298 298 298 300 301 301 303 305 307 309 309 311 315 318 320 321 321 320 321 323 326 329 332 336 338 340 343 346 344 343 347 352 356 2 7 8 6
163 150 145 142 138 143 152 151 147 151 178 204 211 220 237 253 252 238 231 240 256 266 265 257 254 258 263 271 281 295 308 313 310 305 299 292 286 282 279 279 279 280 283 287 290 293 294 295 295 295 295 298 298 299 302 303 301 301 304 309 314 316 317 318 318 318 320 322 326 331 334 338 341 342 344 347 348 346 350 357 0 2 7 12 10
144 147 148 149 146 141 138 143 153 164 197 223 232 253 272 268 253 238 240 256 264 261 256 251 252 259 267 276 288 304 314 314 309 302 296 290 284 278 276 276 278 280 284 287 290 292 293 293 294 295 297 299 298 298 298 296 292 296 304 309 311 312 312 314 315 317 320 324 329 334 337 339 341 342 342 346 349 350 352 358 3 5 8 13 15
155 153 153 158 164 167 173 188 198 205 218 239 254 264 266 257 247 244 253 260 256 251 249 249 255 264 271 280 294 307 314 314 309 302 295 287 279 274 272 274 278 282 285 287 289 290 291 291 292 295 298 298 297 296 295 292 292 298 304 308 311 313 314 315 318 321 324 329 333 335 337 338 339 340 341 344 348 351 354 357 2 8 12 15 17
181 171 173 196 215 217 221 226 224 222 229 244 253 255 254 251 248 248 252 254 251 248 249 255 262 268 275 287 299 309 313 313 307 299 291 282 275 273 273 276 280 283 284 285 287 287 287 288 292 295 296 296 297 296 295 297 299 303 307 312 316 319 320 321 325 327 329 331 332 333 335 336 337 338 339 342 346 350 353 355 2 12 18 20 21
207 235 253 254 256 249 244 247 243 236 238 243 245 248 251 250 246 248 253 254 250 248 253 259 263 273 286 296 302 307 310 308 301 292 284 279 275 274 275 277 280 280 281 283 284 285 285 287 291 294 295 295 297 297 298 302 306 308 313 319 322 325 327 328 330 331 330 330 330 332 333 334 334 336 337 340 345 350 352 354 2 13 20 22 23
237 264 263 243 237 240 243 247 245 239 239 242 245 249 249 246 247 254 255 250 246 250 257 261 267 281 294 299 302 305 306 302 293 284 279 278 276 275 275 276 276 276 278 280 282 283 285 289 292 294 294 295 298 300 304 309 313 316 320 324 327 329 331 331 331 330 329 329 329 330 332 333 333 334 336 339 345 351 355 357 2 12 19 22 24
237 240 223 209 213 218 223 230 233 235 239 243 247 248 246 245 250 254 252 254 261 266 266 266 274 286 294 296 298 301 301 295 286 279 277 277 274 272 273 273 273 275 277 280 282 285 290 293 293 292 293 295 301 308 313 317 319 321 324 326 328 330 330 330 329 328 327 328 328 330 334 336 335 334 337 342 346 351 358 1 3 9 18 24 27
204 205 207 215 222 224 228 233 235 237 240 242 244 244 242 242 248 253 262 273 276 272 268 270 276 285 290 293 295 298 297 290 282 278 278 277 275 275 276 275 274 275 277 281 285 290 295 297 294 292 293 296 303 311 316 317 318 320 323 325 327 328 327 326 326 326 326 328 332 335 339 340 338 338 343 349 351 353 359 5 8 10 14 22 29
194 205 217 227 234 239 242 240 238 240 243 242 240 239 240 248 258 265 271 271 266 261 263 269 275 282 286 289 292 297 296 289 282 278 278 278 279 280 279 277 275 273 273 278 284 290 294 295 292 292 295 299 304 310 314 315 317 320 323 325 324 324 322 322 323 326 330 335 340 343 344 344 343 345 351 357 359 359 1 6 11 14 15 17 27
209 219 228 236 243 245 243 238 237 241 240 238 239 244 252 261 266 267 264 259 255 256 260 265 271 277 280 284 290 293 290 286 282 279 280 283 285 285 282 279 277 273 272 277 282 286 290 291 290 293 297 302 306 311 314 317 320 322 322 322 321 320 321 325 329 333 338 344 348 350 350 350 352 354 358 3 4 4 4 7 11 16 19 19 23
217 224 232 240 244 244 240 236 236 236 236 239 246 252 255 259 263 261 255 251 253 255 257 262 269 273 275 280 283 278 274 278 287 293 296 300 304 303 297 290 284 279 278 282 285 287 289 289 290 295 300 304 310 315 318 320 320 320 320 320 321 324 328 333 337 339 345 352 357 357 356 357 360 2 5 7 8 6 7 9 12 16 21 24 25
222 224 229 235 240 242 242 239 237 238 243 247 250 251 255 260 262 256 250 250 253 254 254 260 268 271 271 273 271 264 263 273 288 301 306 309 313 312 304 294 287 281 280 285 290 292 291 291 293 297 303 309 315 320 322 321 320 320 322 324 327 332 337 340 342 348 356 1 2 1 1 3 7 9 9 9 10 9 9 10 13 17 22 26 28
228 225 226 233 239 241 241 242 247 255 260 261 261 262 264 264 257 249 247 250 250 247 250 261 268 268 265 265 263 259 261 273 287 297 303 309 312 309 300 290 283 275 275 284 290 289 289 292 297 302 307 314 319 321 321 322 323 325 329 333 335 340 346 348 351 357 3 4 4 2 2 4 7 11 14 13 11 10 11 11 15 20 23 26 28
230 228 227 228 230 233 236 243 252 259 264 267 268 266 262 255 246 242 244 244 240 239 251 263 265 261 258 257 256 256 263 276 288 296 305 312 312 305 293 280 270 267 274 283 285 285 288 296 303 307 310 314 317 319 320 324 329 334 337 340 344 349 354 355 356 360 3 3 4 3 3 3 4 9 15 15 11 8 11 13 16 20 25 30 32
221 221 221 221 225 233 241 250 259 265 267 265 260 252 249 252 251 243 238 236 233 237 252 262 260 256 255 253 253 257 266 278 289 301 312 314 309 299 283 266 259 264 274 279 280 283 292 302 309 311 313 315 317 319 321 327 335 339 342 347 351 354 354 354 354 357 1 3 3 4 4 3 3 7 13 15 12 8 9 13 18 22 25 31 36
215 217 221 226 234 242 250 258 269 275 270 259 249 240 242 254 256 245 236 235 234 239 254 266 265 259 255 252 252 259 270 281 295 309 317 313 305 293 272 257 255 262 269 273 277 285 298 313 321 323 323 324 323 322 324 329 334 338 345 350 350 350 352 352 352 355 358 1 3 6 7 6 4 5 10 14 13 11 8 10 17 23 25 29 36
224 225 228 233 237 246 259 270 280 280 268 257 253 252 254 257 254 245 241 242 243 248 259 266 265 259 255 251 252 260 272 284 299 314 317 310 300 283 262 253 253 255 258 264 276 291 307 324 331 333 333 332 326 322 324 327 330 335 341 345 345 346 348 349 350 353 357 359 1 5 8 8 6 7 11 12 12 11 10 10 14 20 25 28 32
232 235 241 247 253 264 273 279 287 286 274 267 270 272 264 259 256 252 252 250 248 250 257 261 260 256 251 247 251 261 272 284 301 314 314 305 289 269 254 250 247 248 254 264 280 301 319 329 333 336 337 336 328 324 324 325 324 327 332 334 338 342 344 345 349 353 355 357 359 1 5 6 5 8 12 13 10 9 11 11 13 19 24 27 29
256 261 267 271 273 275 274 273 279 291 291 290 288 267 254 250 250 252 255 255 256 258 261 261 258 253 247 245 250 258 270 287 304 310 307 296 278 260 247 239 238 243 254 267 283 304 322 331 335 338 338 335 328 323 321 319 318 319 321 322 326 330 333 339 346 351 351 352 355 360 3 3 2 5 10 12 10 9 10 12 15 19 25 28 30
276 276 274 270 262 249 228 224 246 281 314 330 313 266 248 244 246 252 257 261 263 265 262 257 253 251 249 249 252 260 275 294 304 306 303 294 278 257 236 227 232 244 256 269 288 308 320 329 336 339 335 327 321 315 310 311 314 314 311 310 312 316 321 328 336 343 345 346 351 358 1 2 1 3 5 6 8 10 12 13 15 19 24 29 31
276 274 267 258 243 222 204 199 205 223 286 332 327 288 255 249 256 261 262 264 266 265 259 254 252 252 251 253 259 271 283 294 301 302 300 294 277 244 221 218 228 241 253 272 296 312 317 323 330 333 327 319 316 313 309 312 316 315 313 311 308 307 311 316 324 332 337 342 348 354 357 358 360 1 360 360 4 10 14 16 16 16 19 27 33
288 277 263 253 246 241 237 233 229 228 241 266 284 286 276 269 268 265 261 262 264 261 253 249 249 251 255 260 267 274 281 288 293 294 290 282 263 221 207 217 232 241 255 281 301 310 315 319 325 326 318 310 310 313 315 314 314 315 315 314 311 308 307 310 316 322 329 338 346 350 351 351 354 358 359 357 359 6 14 20 19 14 13 21 30
279 263 256 254 254 253 252 250 249 249 249 253 260 265 265 264 268 269 266 262 260 254 247 244 244 247 253 258 260 263 270 278 283 281 273 262 247 227 221 234 247 252 258 276 295 306 312 316 320 317 305 297 301 310 313 311 313 316 315 312 309 305 302 303 308 315 324 335 343 347 348 345 345 351 357 358 356 360 10 21 24 18 13 17 26
280 271 267 265 263 261 263 266 269 270 271 269 268 268 266 264 264 265 264 264 261 255 249 248 248 249 251 253 252 252 256 261 269 271 260 247 238 234 235 244 252 253 256 273 295 306 309 310 309 301 284 279 291 307 313 317 324 328 327 322 313 302 295 296 302 310 319 331 340 346 348 345 340 344 353 357 356 357 3 15 25 23 18 19 26
Height
1511 1513 1515 1517 1520 1522 1525 1528 1529 1530 1531 1532 1533 1534 1534 1534 1534 1533 1533 1534 1535 1536 1536 1537 1537 1537 1538 1538 1539 1540 1540 1540 1540 1540 1539 1539 1538 1537 1537 1536 1536 1536 1535 1535 1535 1534 1533 1533 1532 1531 1531 1530 1530 1530 1529 1528 1528 1527 1527 1526 1525 1524 1522 1521 1517 1514 1512 1513 1511 1510 1509 1506 1504 1502 1500 1496 1495 1493 1491 1489 1487 1486 1483 1481 1478
1507 1510 1512 1514 1517 1519 1522 1525 1527 1528 1529 1529 1531 1532 1532 1533 1533 1532 1531 1531 1533 1534 1535 1535 1535 1535 1535 1536 1536 1537 1537 1538 1538 1538 1537 1537 1536 1535 1534 1534 1533 1533 1533 1533 1532 1532 1531 1530 1529 1529 1528 1527 1527 1527 1527 1526 1525 1525 1524 1523 1522 1521 1520 1518 1516 1513 1510 1509 1509 1508 1507 1505 1502 1500 1498 1495 1492 1489 1486 1484 1483 1481 1479 1477 1474
1504 1507 1509 1511 1514 1518 1520 1523 1524 1525 1526 1526 1528 1529 1530 1531 1531 1531 1530 1530 1531 1532 1533 1534 1534 1533 1533 1533 1533 1534 1535 1535 1535 1535 1535 1534 1533 1533 1532 1531 1531 1531 1530 1530 1530 1529 1528 1527 1527 1527 1526 1525 1525 1525 1524 1523 1523 1522 1521 1520 1519 1518 1517 1516 1514 1511 1508 1506 1506 1505 1504 1503 1500 1498 1496 1493 1490 1487 1483 1480 1478 1476 1474 1472 1470
1502 1504 1506 1508 1512 1515 1517 1519 1521 1522 1522 1523 1524 1526 1528 1528 1529 1529 1529 1529 1529 1530 1531 1532 1532 1531 1531 1530 1531 1531 1532 1533 1533 1533 1532 1531 1531 1530 1529 1529 1528 1528 1528 1528 1528 1527 1526 1525 1525 1524 1524 1523 1522 1522 1521 1521 1520 1519 1518 1517 1516 1515 1514 1513 1512 1510 1507 1504 1503 1502 1501 1500 1497 1495 1493 1490 1487 1484 1481 1477 1474 1471 1468 1467 1464
1498 1500 1503 1505 1507 1510 1512 1515 1517 1518 1518 1519 1521 1524 1525 1525 1526 1527 1527 1527 1527 1528 1529 1530 1530 1530 1529 1528 1528 1529 1530 1530 1530 1530 1529 1528 1528 1527 1527 1526 1526 1526 1526 1526 1526 1525 1525 1524 1523 1522 1521 1520 1520 1519 1518 1518 1517 1516 1515 1513 1512 1511 1511 1510 1509 1507 1505 1502 1500 1499 1499 1497 1494 1493 1491 1488 1483 1480 1477 1473 1470 1467 1463 1461 1459
1493 1495 1498 1500 1502 1504 1507 1510 1512 1513 1514 1516 1518 1521 1521 1522 1523 1524 1525 1525 1525 1525 1526 1527 1528 1528 1527 1526 1526 1527 1527 1528 1528 1527 1527 1526 1525 1525 1524 1524 1524 1524 1524 1524 1524 1523 1523 1522 1521 1520 1519 1518 1517 1517 1516 1515 1514 1513 1512 1511 1510 1509 1507 1507 1506 1504 1503 1500 1498 1496 1495 1494 1491 1489 1489 1486 1481 1476 1472 1467 1464 1462 1459 1455 1452
1489 1491 1493 1495 1496 1499 1503 1506 1508 1509 1511 1512 1515 1517 1518 1519 1519 1521 1522 1522 1522 1523 1524 1525 1525 1525 1525 1524 1524 1525 1525 1526 1526 1525 1525 1524 1523 1523 1522 1522 1522 1522 1522 1522 1522 1521 1520 1519 1519 1518 1517 1516 1515 1514 1513 1512 1511 1510 1509 1508 1507 1506 1505 1504 1503 1501 1499 1498 1496 1494 1492 1490 1488 1486 1485 1483 1479 1475 1470 1464 1457 1456 1455 1451 1447
1484 1486 1488 1489 1492 1494 1498 1501 1503 1505 1507 1509 1511 1512 1514 1515 1516 1518 1519 1519 1520 1520 1521 1522 1523 1523 1523 1522 1522 1523 1523 1524 1524 1524 1523 1522 1522 1521 1520 1520 1520 1520 1520 1520 1519 1519 1518 1517 1516 1515 1514 1513 1512 1512 1511 1510 1509 1507 1506 1505 1504 1503 1502 1501 1499 1498 1497 1495 1493 1491 1489 1487 1485 1483 1481 1479 1475 1471 1470 1464 1455 1450 1449 1446 1442
1479 1480 1482 1484 1486 1489 1493 1497 1499 1502 1504 1505 1506 1508 1509 1511 1513 1515 1516 1517 1518 1518 1519 1520 1521 1521 1520 1520 1520 1521 1522 1522 1522 1522 1521 1520 1520 1519 1518 1518 1517 1517 1517 1517 1517 1516 1516 1515 1514 1513 1512 1511 1510 1509 1508 1507 1506 1504 1503 1502 1501 1500 1499 1498 1496 1495 1493 1491 1490 1488 1487 1484 1482 1480 1477 1475 1472 1468 1465 1462 1454 1447 1444 1440 1436
1474 1476 1477 1479 1481 1484 1488 1492 1495 1497 1499 1500 1503 1505 1507 1509 1511 1513 1514 1515 1516 1517 1517 1518 1519 1519 1518 1518 1518 1519 1520 1520 1520 1520 1519 1518 1518 1517 1516 1516 1515 1515 1515 1515 1514 1514 1513 1512 1511 1510 1509 1508 1507 1506 1505 1505 1503 1501 1500 1499 1498 1497 1496 1495 1493 1492 1490 1488 1486 1485 1483 1481 1479 1477 1473 1471 1469 1465 1461 1458 1451 1444 1441 1436 1429
1470 1472 1473 1475 1477 1479 1483 1486 1489 1491 1493 1496 1500 1503 1505 1507 1509 1511 1512 1513 1514 1515 1516 1516 1516 1516 1516 1515 1516 1516 1517 1518 1518 1518 1517 1516 1516 1515 1514 1514 1513 1513 1513 1512 1512 1511 1510 1509 1508 1507 1506 1505 1504 1503 1502 1502 1500 1499 1498 1497 1496 1494 1493 1492 1490 1489 1487 1484 1483 1482 1479 1477 1475 1474 1471 1467 1465 1462 1458 1454 1449 1442 1437 1433 1426
1467 1469 1470 1472 1473 1473 1477 1482 1486 1489 1494 1498 1501 1502 1503 1505 1507 1508 1509 1511 1512 1513 1514 1514 1514 1514 1513 1513 1513 1514 1515 1515 1515 1516 1515 1514 1514 1513 1512 1512 1511 1511 1510 1509 1509 1508 1507 1506 1505 1504 1503 1502 1501 1500 1499 1499 1498 1497 1495 1494 1493 1492 1491 1489 1487 1486 1484 1481 1479 1478 1476 1473 1472 1470 1468 1464 1460 1457 1453 1449 1445 1440 1434 1430 1424
1465 1468 1469 1471 1472 1475 1481 1486 1489 1492 1497 1501 1503 1502 1502 1503 1505 1506 1507 1509 1510 1511 1511 1512 1512 1512 1511 1511 1511 1512 1512 1513 1513 1513 1512 1512 1511 1510 1510 1509 1509 1508 1508 1507 1506 1505 1504 1503 1502 1501 1500 1499 1498 1498 1497 1496 1495 1494 1493 1491 1490 1489 1488 1486 1485 1483 1481 1478 1475 1474 1472 1471 1468 1466 1465 1462 1457 1452 1448 1443 1440 1435 1429 1425 1419
1466 1468 1468 1469 1471 1474 1480 1485 1488 1491 1493 1497 1500 1501 1501 1502 1502 1504 1505 1507 1508 1508 1509 1509 1510 1510 1509 1509 1509 1510 1510 1511 1511 1510 1509 1509 1508 1508 1507 1507 1506 1506 1505 1504 1503 1502 1501 1500 1499 1498 1497 1496 1496 1495 1494 1493 1492 1491 1490 1488 1487 1486 1485 1483 1482 1479 1477 1475 1472 1470 1469 1468 1465 1462 1461 1459 1455 1449 1444 1438 1433 1428 1423 1417 1412
1465 1466 1466 1466 1465 1466 1471 1477 1483 1486 1489 1493 1496 1498 1500 1500 1500 1502 1503 1504 1505 1506 1507 1507 1507 1507 1507 1507 1508 1508 1509 1509 1509 1508 1507 1506 1506 1505 1505 1504 1504 1503 1503 1502 1500 1499 1498 1497 1496 1495 1494 1493 1493 1492 1491 1490 1488 1487 1486 1484 1483 1482 1480 1479 1478 1476 1473 1471 1469 1467 1466 1464 1462 1459 1457 1455 1451 1447 1442 1436 1428 1422 1415 1409 1404
1462 1462 1462 1462 1461 1462 1466 1471 1478 1483 1486 1490 1493 1496 1497 1498 1499 1500 1501 1501 1503 1504 1504 1505 1505 1504 1505 1505 1506 1506 1506 1507 1506 1505 1504 1504 1503 1502 1502 1502 1501 1501 1500 1499 1498 1497 1495 1494 1493 1492 1491 1490 1490 1488 1487 1486 1485 1483 1482 1480 1479 1477 1476 1475 1474 1472 1469 1468 1466 1464 1462 1461 1459 1456 1454 1451 1447 1443 1438 1431 1424 1417 1410 1402 1397
1459 1459 1459 1458 1459 1464 1467 1471 1476 1480 1484 1488 1491 1494 1495 1494 1495 1497 1498 1498 1500 1501 1502 1502 1502 1502 1502 1503 1503 1503 1504 1504 1504 1502 1502 1501 1501 1500 1500 1499 1498 1498 1497 1496 1495 1494 1493 1491 1490 1489 1488 1487 1486 1485 1484 1482 1481 1480 1478 1477 1475 1473 1472 1471 1470 1468 1466 1464 1462 1460 1458 1457 1455 1453 1450 1448 1444 1440 1434 1425 1418 1412 1405 1397 1391
1456 1456 1456 1457 1460 1464 1466 1469 1472 1477 1482 1486 1488 1489 1490 1490 1491 1493 1495 1496 1497 1498 1499 1499 1499 1499 1498 1498 1500 1501 1501 1501 1500 1499 1499 1498 1498 1497 1497 1496 1495 1495 1495 1494 1493 1492 1490 1489 1487 1486 1485 1484 1483 1482 1480 1479 1478 1477 1475 1473 1471 1469 1468 1467 1465 1463 1461 1460 1458 1457 1455 1454 1452 1450 1447 1444 1441 1437 1431 1422 1414 1408 1400 1393 1385
1453 1453 1453 1455 1460 1462 1463 1466 1470 1474 1479 1483 1483 1484 1485 1486 1487 1490 1492 1494 1494 1495 1496 1496 1496 1496 1495 1496 1498 1499 1499 1498 1497 1496 1496 1495 1495 1494 1494 1493 1493 1492 1492 1491 1490 1489 1487 1486 1485 1484 1482 1481 1480 1479 1477 1476 1475 1474 1472 1470 1468 1466 1464 1463 1461 1458 1457 1455 1454 1453 1452 1450 1448 1446 1443 1439 1436 1433 1428 1420 1412 1404 1395 1387 1381
1449 1450 1450 1452 1456 1458 1460 1465 1470 1473 1477 1479 1480 1481 1482 1484 1487 1490 1491 1491 1492 1493 1493 1493 1494 1493 1493 1494 1495 1495 1495 1494 1494 1493 1492 1492 1492 1491 1491 1490 1490 1489 1489 1488 1487 1486 1485 1483 1482 1481 1479 1478 1477 1476 1474 1474 1472 1471 1469 1467 1465 1463 1461 1460 1458 1456 1453 1452 1451 1449 1448 1446 1444 1441 1438 1434 1431 1427 1422 1415 1408 1400 1391 1382 1375
1448 1448 1448 1450 1454 1457 1460 1465 1468 1471 1475 1477 1479 1480 1481 1484 1488 1489 1489 1489 1489 1489 1489 1489 1490 1490 1490 1491 1492 1491 1491 1491 1490 1490 1489 1489 1488 1488 1487 1487 1487 1486 1486 1485 1484 1483 1482 1481 1479 1478 1476 1475 1474 1473 1472 1471 1470 1468 1467 1465 1463 1461 1459 1456 1455 1453 1451 1449 1448 1446 1445 1442 1440 1437 1434 1430 1426 1421 1416 1409 1402 1394 1386 1377 1369
1452 1452 1452 1454 1457 1459 1462 1465 1468 1470 1473 1475 1478 1479 1480 1484 1486 1485 1486 1487 1487 1486 1485 1485 1485 1487 1488 1489 1489 1488 1488 1488 1488 1487 1487 1486 1485 1484 1484 1484 1484 1483 1483 1482 1481 1480 1479 1478 1477 1475 1474 1472 1471 1470 1469 1468 1467 1465 1464 1462 1461 1459 1456 1454 1452 1450 1448 1447 1445 1444 1442 1439 1436 1433 1429 1426 1422 1416 1410 1403 1396 1389 1380 1371 1363
1453 1455 1456 1458 1460 1463 1466 1468 1470 1471 1472 1473 1476 1477 1479 1481 1483 1483 1484 1485 1486 1485 1484 1482 1482 1483 1484 1485 1485 1485 1485 1485 1485 1484 1483 1482 1482 1481 1481 1481 1481 1481 1480 1479 1478 1477 1476 1475 1474 1473 1471 1469 1468 1468 1467 1466 1464 1463 1462 1460 1458 1456 1454 1452 1450 1448 1447 1445 1444 1442 1439 1436 1432 1429 1425 1422 1418 1412 1405 1399 1393 1384 1374 1364 1356
1452 1455 1458 1460 1462 1466 1469 1470 1471 1471 1471 1472 1474 1476 1478 1479 1480 1480 1480 1480 1481 1481 1480 1480 1480 1480 1480 1481 1482 1482 1482 1482 1482 1481 1480 1479 1479 1479 1479 1479 1479 1478 1477 1477 1476 1475 1474 1473 1471 1470 1469 1467 1466 1465 1464 1463 1462 1461 1459 1458 1456 1454 1452 1450 1448 1447 1445 1443 1441 1439 1436 1434 1430 1426 1422 1419 1415 1409 1403 1397 1391 1383 1373 1362 1355
1451 1454 1456 1457 1460 1464 1467 1469 1470 1470 1470 1471 1473 1475 1475 1475 1475 1475 1476 1476 1476 1477 1477 1478 1478 1477 1478 1478 1479 1479 1479 1479 1479 1479 1477 1477 1476 1476 1476 1476 1476 1476 1475 1474 1473 1472 1471 1470 1469 1468 1466 1465 1464 1463 1462 1461 1460 1459 1457 1456 1454 1452 1451 1449 1447 1445 1443 1441 1439 1437 1434 1432 1429 1425 1421 1417 1412 1407 1401 1396 1390 1381 1372 1363 1356
1450 1452 1453 1454 1457 1462 1464 1466 1468 1469 1469 1469 1471 1471 1472 1472 1472 1473 1473 1474 1474 1475 1475 1475 1475 1475 1476 1476 1476 1476 1477 1477 1477 1476 1475 1474 1474 1474 1474 1474 1474 1473 1472 1472 1471 1470 1469 1468 1467 1466 1464 1463 1462 1461 1460 1459 1458 1457 1455 1454 1452 1451 1450 1448 1446 1444 1442 1440 1437 1435 1432 1429 1427 1424 1419 1415 1411 1406 1400 1394 1388 1380 1372 1364 1358
1448 1451 1453 1455 1458 1460 1462 1464 1465 1466 1466 1466 1467 1468 1470 1471 1471 1470 1471 1471 1472 1473 1473 1473 1473 1473 1474 1474 1474 1475 1475 1475 1474 1474 1473 1472 1472 1472 1472 1472 1471 1470 1470 1469 1469 1468 1467 1466 1465 1464 1463 1462 1461 1460 1458 1457 1456 1455 1454 1453 1451 1450 1448 1446 1444 1442 1440 1438 1436 1433 1431 1428 1425 1422 1418 1414 1410 1405 1400 1394 1388 1382 1374 1366 1360
1448 1451 1455 1457 1458 1458 1460 1461 1462 1462 1464 1466 1467 1468 1469 1469 1468 1468 1468 1469 1470 1470 1470 1470 1471 1472 1472 1472 1473 1473 1473 1473 1472 1471 1470 1470 1470 1470 1470 1469 1469 1468 1468 1467 1467 1466 1465 1464 1463 1462 1462 1461 1460 1458 1457 1456 1455 1454 1453 1451 1450 1449 1447 1445 1443 1441 1439 1437 1434 1432 1429 1426 1423 1420 1416 1413 1409 1404 1400 1395 1389 1383 1377 1370 1363
1449 1451 1453 1455 1455 1456 1458 1460 1460 1462 1464 1465 1467 1467 1466 1466 1466 1466 1467 1467 1467 1468 1468 1468 1469 1470 1470 1471 1471 1471 1471 1470 1469 1468 1468 1468 1468 1468 1467 1467 1466 1466 1466 1465 1465 1464 1464 1463 1462 1461 1461 1460 1459 1457 1456 1455 1454 1452 1451 1450 1449 1447 1446 1444 1442 1439 1437 1435 1433 1430 1428 1425 1422 1419 1415 1412 1408 1404 1399 1395 1390 1385 1379 1373 1367
1448 1450 1452 1453 1453 1454 1456 1457 1458 1460 1460 1461 1462 1462 1462 1463 1464 1464 1464 1465 1465 1466 1466 1467 1468 1468 1469 1469 1468 1468 1468 1467 1466 1466 1466 1466 1466 1466 1465 1465 1464 1464 1464 1463 1463 1463 1462 1462 1461 1460 1460 1459 1457 1456 1455 1453 1452 1451 1450 1448 1447 1446 1444 1442 1440 1438 1436 1434 1432 1429 1427 1424 1421 1418 1414 1411 1407 1403 1399 1395 1391 1386 1380 1374 1368
1448 1450 1451 1452 1452 1451 1452 1452 1453 1455 1456 1457 1458 1458 1459 1461 1462 1462 1463 1463 1463 1464 1465 1465 1466 1467 1466 1466 1466 1465 1465 1464 1464 1465 1465 1465 1464 1464 1463 1463 1462 1462 1462 1461 1461 1461 1461 1460 1460 1459 1458 1457 1456 1455 1453 1452 1450 1450 1448 1447 1446 1444 1442 1441 1438 1436 1435 1432 1430 1428 1426 1423 1420 1417 1414 1410 1407 1403 1400 1396 1393 1388 1383 1378 1373
1447 1448 1450 1450 1450 1449 1450 1450 1451 1453 1454 1455 1455 1456 1458 1459 1460 1461 1461 1461 1462 1463 1463 1464 1464 1464 1464 1464 1463 1462 1462 1462 1462 1463 1463 1463 1463 1462 1461 1461 1461 1461 1460 1460 1460 1460 1459 1459 1458 1457 1457 1456 1455 1453 1452 1450 1449 1448 1447 1446 1444 1443 1441 1439 1437 1435 1433 1431 1429 1427 1425 1422 1420 1417 1414 1411 1407 1403 1400 1397 1393 1390 1386 1382 1378
1447 1447 1448 1448 1447 1448 1448 1449 1450 1451 1452 1453 1454 1455 1456 1457 1458 1459 1459 1460 1460 1461 1462 1462 1462 1462 1461 1461 1460 1460 1460 1461 1461 1461 1461 1461 1461 1460 1460 1459 1459 1459 1459 1459 1459 1459 1458 1457 1456 1456 1456 1455 1453 1452 1451 1449 1448 1447 1445 1444 1443 1441 1440 1438 1436 1435 1433 1430 1428 1426 1424 1422 1419 1416 1413 1410 1407 1404 1401 1397 1394 1391 1387 1384 1380
1446 1447 1447 1447 1447 1448 1448 1448 1449 1450 1451 1452 1452 1453 1454 1456 1456 1457 1458 1458 1459 1460 1460 1460 1460 1459 1459 1459 1458 1459 1459 1459 1459 1459 1459 1459 1459 1459 1458 1458 1458 1457 1458 1458 1458 1457 1457 1456 1455 1455 1454 1454 1452 1451 1450 1448 1447 1446 1444 1443 1442 1440 1439 1437 1435 1433 1432 1430 1428 1425 1423 1421 1418 1415 1413 1410 1407 1404 1401 1398 1396 1392 1388 1385 1382
1445 1446 1447 1447 1447 1447 1448 1448 1449 1450 1450 1450 1451 1452 1453 1454 1455 1456 1457 1457 1458 1458 1458 1458 1458 1458 1457 1457 1457 1457 1458 1457 1457 1457 1458 1458 1458 1458 1457 1457 1456 1456 1456 1456 1456 1456 1455 1454 1454 1453 1453 1453 1451 1450 1449 1447 1446 1444 1443 1442 1441 1439 1438 1436 1434 1432 1430 1429 1427 1425 1423 1420 1418 1415 1412 1410 1407 1405 1402 1399 1397 1393 1390 1387 1384
1444 1445 1445 1446 1446 1446 1447 1447 1448 1448 1449 1449 1450 1451 1453 1454 1454 1455 1455 1456 1456 1456 1457 1457 1457 1456 1456 1456 1456 1456 1456 1456 1456 1456 1457 1457 1457 1457 1456 1456 1455 1455 1455 1455 1455 1454 1454 1453 1452 1452 1452 1452 1450 1449 1448 1446 1445 1443 1442 1441 1439 1438 1436 1435 1433 1431 1430 1428 1426 1424 1422 1420 1418 1415 1412 1410 1408 1405 1403 1400 1398 1395 1392 1389 1386
1443 1444 1444 1444 1444 1445 1445 1446 1446 1447 1448 1449 1450 1451 1451 1452 1453 1453 1454 1454 1454 1455 1455 1455 1455 1455 1454 1454 1454 1454 1454 1454 1455 1455 1455 1456 1456 1455 1455 1454 1453 1453 1453 1453 1453 1453 1452 1452 1451 1451 1451 1450 1449 1448 1446 1445 1444 1442 1441 1439 1438 1437 1435 1434 1432 1431 1429 1427 1426 1424 1422 1420 1417 1415 1412 1410 1408 1406 1403 1401 1398 1396 1394 1391 1388
1443 1443 1443 1444 1444 1444 1444 1445 1445 1446 1447 1448 1449 1449 1450 1450 1451 1451 1452 1453 1453 1453 1453 1453 1453 1453 1453 1453 1453 1453 1453 1453 1454 1454 1454 1454 1454 1454 1453 1452 1452 1452 1452 1451 1451 1451 1451 1450 1450 1450 1450 1449 1448 1447 1445 1444 1443 1441 1440 1438 1437 1435 1434 1433 1432 1430 1429 1427 1426 1424 1422 1420 1418 1415 1413 1411 1408 1406 1404 1401 1399 1397 1395 1392 1390
1442 1442 1443 1443 1443 1444 1444 1445 1445 1446 1447 1447 1448 1448 1448 1448 1449 1449 1450 1451 1451 1451 1451 1451 1451 1452 1452 1452 1452 1452 1452 1453 1453 1453 1453 1453 1452 1452 1451 1451 1451 1451 1450 1450 1450 1450 1450 1449 1449 1449 1449 1448 1446 1445 1444 1442 1441 1440 1438 1437 1436 1435 1434 1433 1432 1431 1429 1427 1426 1424 1422 1420 1418 1416 1414 1412 1409 1407 1405 1403 1400 1398 1396 1393 1391
1441 1442 1442 1443 1443 1444 1444 1445 1445 1446 1446 1446 1446 1446 1445 1446 1446 1447 1448 1448 1449 1449 1449 1450 1450 1450 1451 1451 1451 1451 1452 1452 1452 1452 1452 1451 1451 1450 1450 1449 1449 1449 1449 1449 1449 1449 1448 1448 1448 1448 1447 1446 1445 1444 1442 1441 1440 1439 1437 1436 1436 1435 1434 1433 1432 1431 1429 1428 1426 1424 1423 1421 1419 1417 1415 1413 1411 1408 1406 1404 1402 1399 1397 1395 1393
1440 1440 1441 1441 1442 1443 1443 1444 1444 1444 1444 1444 1443 1443 1443 1443 1443 1444 1445 1446 1446 1447 1447 1448 1448 1449 1449 1450 1450 1450 1451 1451 1451 1450 1450 1449 1449 1448 1448 1448 1448 1448 1448 1448 1448 1447 1447 1447 1447 1446 1446 1445 1444 1443 1441 1440 1439 1438 1437 1436 1435 1435 1434 1433 1432 1431 1430 1428 1427 1425 1423 1421 1420 1418 1416 1414 1412 1410 1408 1406 1403 1401 1399 1396 1394
1438 1439 1439 1440 1441 1441 1442 1442 1443 1442 1442 1441 1440 1440 1441 1442 1442 1443 1443 1444 1444 1445 1445 1446 1447 1447 1447 1448 1448 1449 1449 1449 1449 1448 1447 1447 1446 1446 1446 1446 1446 1447 1447 1446 1446 1446 1446 1446 1446 1445 1445 1444 1443 1441 1440 1439 1439 1438 1437 1437 1436 1435 1434 1433 1432 1431 1430 1429 1427 1426 1424 1422 1421 1419 1417 1415 1413 1411 1409 1406 1405 1403 1400 1398 1396
1437 1438 1439 1439 1440 1440 1441 1441 1441 1441 1440 1438 1437 1438 1440 1440 1441 1442 1442 1442 1443 1444 1444 1445 1445 1445 1446 1446 1447 1447 1448 1447 1447 1446 1445 1444 1444 1444 1444 1445 1445 1445 1445 1445 1445 1445 1445 1445 1445 1444 1443 1443 1442 1441 1440 1439 1439 1438 1438 1437 1436 1435 1434 1433 1433 1432 1430 1429 1428 1426 1425 1423 1421 1420 1418 1416 1414 1412 1410 1408 1406 1404 1402 1400 1398
1437 1437 1438 1439 1439 1439 1439 1439 1439 1438 1438 1437 1437 1439 1440 1440 1440 1440 1440 1441 1442 1442 1443 1443 1443 1444 1444 1445 1445 1446 1446 1445 1445 1444 1443 1442 1442 1442 1442 1443 1443 1444 1444 1444 1444 1444 1444 1444 1444 1443 1442 1441 1441 1440 1440 1439 1439 1438 1438 1437 1436 1436 1435 1434 1433 1432 1431 1430 1428 1427 1425 1424 1422 1420 1418 1417 1415 1413 1411 1409 1407 1405 1404 1402 1400
1435 1437 1437 1437 1437 1437 1437 1436 1436 1436 1436 1436 1437 1438 1438 1438 1438 1438 1439 1440 1440 1440 1441 1442 1442 1442 1442 1443 1443 1444 1444 1443 1443 1442 1441 1441 1440 1440 1441 1442 1442 1443 1443 1443 1443 1443 1443 1443 1443 1442 1441 1440 1440 1440 1439 1439 1438 1438 1437 1437 1436 1436 1435 1434 1433 1433 1431 1430 1428 1427 1426 1424 1423 1421 1419 1418 1416 1414 1413 1411 1409 1407 1405 1404 1402
1434 1435 1435 1436 1436 1435 1435 1434 1435 1435 1435 1435 1436 1436 1436 1437 1437 1437 1437 1438 1438 1439 1439 1440 1440 1440 1441 1441 1442 1442 1442 1442 1442 1441 1440 1439 1439 1439 1439 1440 1441 1442 1442 1442 1442 1443 1442 1442 1441 1441 1440 1440 1440 1439 1439 1439 1438 1438 1437 1437 1436 1435 1435 1434 1434 1433 1432 1430 1429 1428 1426 1425 1423 1422 1420 1419 1417 1416 1414 1413 1411 1409 1407 1406 1404
1433 1433 1433 1433 1433 1433 1433 1433 1433 1433 1434 1434 1435 1435 1435 1435 1435 1436 1436 1437 1437 1437 1437 1438 1438 1438 1439 1439 1440 1440 1440 1440 1440 1439 1439 1438 1438 1437 1438 1439 1440 1441 1441 1441 1441 1442 1441 1441 1441 1440 1439 1439 1439 1439 1439 1438 1438 1437 1437 1436 1436 1435 1434 1434 1434 1433 1432 1431 1430 1428 1427 1426 1424 1422 1421 1420 1418 1417 1415 1414 1412 1411 1409 1408 1407
1431 1432 1432 1431 1431 1431 1432 1432 1432 1433 1433 1433 1433 1434 1434 1434 1434 1435 1435 1435 1435 1436 1436 1436 1436 1437 1437 1437 1438 1438 1438 1438 1438 1437 1437 1437 1437 1437 1437 1438 1439 1440 1440 1440 1441 1441 1440 1440 1440 1439 1439 1439 1438 1438 1438 1438 1437 1437 1436 1435 1435 1434 1434 1433 1433 1433 1432 1431 1430 1429 1428 1426 1425 1424 1422 1420 1419 1418 1416 1415 1413 1412 1411 1410 1409
1430 1430 1430 1430 1430 1431 1431 1431 1431 1431 1431 1432 1432 1433 1433 1433 1433 1434 1434 1434 1434 1434 1434 1434 1434 1435 1435 1436 1436 1436 1436 1436 1436 1436 1436 1436 1436 1436 1437 1438 1439 1439 1439 1439 1440 1440 1440 1439 1439 1438 1438 1438 1438 1437 1437 1437 1436 1436 1435 1434 1434 1433 1433 1432 1432 1432 1432 1431 1430 1429 1428 1427 1426 1425 1423 1422 1420 1419 1418 1417 1415 1414 1412 1411 1410
1429 1429 1429 1429 1429 1430 1430 1430 1430 1430 1430 1431 1431 1431 1431 1432 1432 1432 1432 1432 1432 1432 1433 1433 1433 1433 1433 1433 1434 1434 1434 1434 1434 1434 1434 1435 1435 1436 1436 1437 1438 1438 1438 1438 1438 1439 1439 1438 1438 1438 1438 1437 1437 1437 1437 1436 1436 1435 1434 1433 1433 1432 1431 1431 1431 1431 1431 1430 1430 1429 1428 1427 1426 1425 1424 1423 1422 1420 1419 1418 1417 1416 1414 1413 1412
1428 1428 1428 1428 1428 1428 1428 1428 1429 1429 1429 1429 1429 1429 1430 1430 1430 1430 1430 1430 1431 1431 1431 1431 1431 1431 1431 1431 1432 1432 1432 1433 1433 1433 1433 1433 1434 1434 1435 1436 1436 1437 1437 1437 1437 1437 1437 1437 1437 1437 1437 1437 1437 1437 1436 1436 1435 1434 1433 1432 1431 1431 1430 1430 1430 1430 1430 1430 1430 1429 1428 1428 1427 1426 1425 1424 1423 1421 1420 1419 1419 1417 1416 1415 1414